Creek Data

    Home     View Charts     View Raw Data     Messages

ID Distance Battery Voltage Battery Current Internal Temp Internal Humidity External Temp Solar Input rssi snr Time Stamp Record
68493 15.0 3.72 0 63 48 61 5.1 -75 8 03/10/2026 10:45 AM 51361
68492 15.0 3.84 5 63 48 60 5.1 -74 8 03/10/2026 10:30 AM 51360
68491 15.0 3.72 5 61 48 62 5.1 -74 8 03/10/2026 10:15 AM 51359
68490 15.0 3.74 0 60 48 60 5.1 -76 8 03/10/2026 10:00 AM 51358
68489 15.0 3.72 5 58 48 59 5.1 -77 8 03/10/2026 09:45 AM 51357
68488 15.0 3.72 0 57 48 59 5.1 -79 8 03/10/2026 09:30 AM 51356
68487 14.9 3.72 5 55 48 59 5.1 -75 8 03/10/2026 09:15 AM 51355
68486 14.9 3.72 5 54 48 56 5.1 -81 8 03/10/2026 09:00 AM 51354
68485 14.8 3.93 0 52 48 55 5.1 -77 8 03/10/2026 08:45 AM 51353
68484 14.8 3.93 43 51 48 53 4.5 -76 8 03/10/2026 08:30 AM 51352
68483 14.8 3.78 26 50 49 53 4.5 -76 8 03/10/2026 08:15 AM 51351
68482 14.8 3.79 9 49 49 51 4.5 -78 8 03/10/2026 08:00 AM 51350
68481 14.8 3.74 6 47 50 50 4.5 -78 8 03/10/2026 07:45 AM 51349
68480 14.8 3.70 -9 46 50 49 4.5 -77 8 03/10/2026 07:30 AM 51348
68479 14.8 3.62 -5 46 50 48 1.6 -77 8 03/10/2026 07:15 AM 51347
68478 14.8 3.62 -5 45 50 48 0 -78 7 03/10/2026 07:00 AM 51346
68477 14.8 3.71 -5 45 50 48 0 -78 9 03/10/2026 06:45 AM 51345
68476 14.8 3.63 -5 43 51 47 0 -79 8 03/10/2026 06:30 AM 51344
68475 14.8 3.71 -5 42 51 44 0 -76 8 03/10/2026 06:15 AM 51343
68474 14.8 3.63 -5 42 51 43 0 -77 9 03/10/2026 06:00 AM 51342
68473 14.8 3.71 -5 42 51 43 0 -77 8 03/10/2026 05:45 AM 51341
68472 14.8 3.63 -5 42 51 44 0.1 -77 8 03/10/2026 05:30 AM 51340
68471 14.8 3.72 -5 42 52 45 0.1 -77 8 03/10/2026 05:15 AM 51339
68470 14.8 3.63 -5 42 52 45 0 -78 8 03/10/2026 05:00 AM 51338
68469 14.8 3.72 -5 42 52 44 0 -77 9 03/10/2026 04:45 AM 51337